Voltar ao catálogo

BREEZE-M R/B

AtivoHEO
NORAD 39173·ROCKET BODY·🇷🇺 Russia

Lançado Jun 3, 2013 de Baikonur Cosmodrome

Loading…

Próximas Passagens (próximas 24 horas)

TLE

AtualizadoSource: Space-Track

Época: Sep 13, 2026, 23:02 UTC

1 39173U 13026B   26256.96005349 -.00000289  00000-0  00000-0 0  9992
2 39173  27.3178 298.2965 7672211 208.5876  68.1210  1.10515958 53232

Acompanhe BREEZE-M R/B em tempo real com AllMySat

Download on the App Store